Location: Eferding
(48.3167°N, 14.0167°E)
Time: 02:12:05
(UTC+00:00)

PSLV R/B - Pass Details

Date: 12 November 2019
Orbit: 568 x 598 km, 98.1° (Epoch: 14 December)

Event Time Altitude Azimuth Distance (km) Brightness Sun altitude
Rises 16:03:48 0° 15° (NNE) 2,854 7.1 -6.1°
Reaches altitude 10° 16:05:59 10° 17° (NNE) 1,948 6.3 -6.4°
Maximum altitude 16:10:13 75° 104° (ESE) 625 4.0 -7.1°
Drops below altitude 10° 16:14:25 10° 189° (S) 1,933 7.0 -7.7°
Sets 16:16:35 0° 191° (SSW) 2,829 7.9 -8.1°
